[[{"header":{"parameterUnit":"m.s-1","parameterCategory":1,"la1":30.2991,"la2":30.254,"lo1":-89.0895,"lo2":-89.0444,"dy":0.0017,"dx":0.0017,"nx":28,"ny":28,"refTime":"2025-02-27T03:00:00:Z","depth":0,"parameterNumber":2,"parameterNumberName":"U-component_of_WINDS"},"data":[0,0,0,0,0,0,0,0,0,0,0,0,0,0,0,0,0,0,0,0,0,0,0,0,0,0,0,0,0,0,0,0,0,0,0,0,0,0,0,0,0,0,0,0,0,0,0,0,0,0,0,0,0,0,0,0,0,0,1.9561,1.9562,0,1.9645,1.9646,1.9646,1.9649,1.9648,1.9647,1.9646,1.9736,1.9739,1.9743,0,0,0,0,0,0,0,0,0,0,0,0,0,1.941,1.9413,1.9561,1.9562,1.9563,1.9644,1.9646,1.9647,1.9649,1.9648,1.9647,1.9646,1.9735,1.9739,1.9743,0,0,0,0,0,0,0,0,0,0,0,0,0,1.9483,1.9413,1.9561,1.9574,1.9576,1.9644,1.9646,1.9647,1.965,1.9648,1.9647,1.9645,1.9734,1.9739,1.9744,1.9805,0,0,1.9759,1.9761,0,0,0,0,0,0,0,0,1.9479,1.9488,1.9571,1.9573,1.9576,1.9635,1.9625,1.97,1.965,1.9622,1.9646,1.9644,1.9704,1.9711,1.9731,1.981,1.9813,1.9759,1.9762,1.9765,1.9766,0,0,0,0,0,0,0,1.9474,1.9485,1.9594,1.9572,1.9575,1.9578,1.9587,1.964,1.9671,1.9624,1.9625,1.9634,1.9705,1.9726,1.9733,1.9815,1.9759,1.9764,1.9767,1.9769,1.9953,1.9954,0,0,0,0,0,0,1.9465,1.948,1.9592,1.9597,1.9522,1.9582,1.9592,1.9617,1.967,1.9676,1.9635,1.9634,1.9718,1.9727,1.9736,1.9814,1.9764,1.9769,1.9772,1.9951,1.9953,1.9955,0,0,0,0,0,0,1.9462,1.9475,1.9588,1.9539,1.9553,1.9586,1.9615,1.962,1.9641,1.9678,1.9685,1.965,1.9717,1.9729,1.9789,1.9817,1.9771,1.9776,1.9949,1.9951,1.9954,1.9969,0,0,0,0,0,0,1.9457,1.9474,1.9496,1.9539,1.9556,1.9638,1.9617,1.9623,1.9649,1.9648,1.9694,1.9701,1.9717,1.9781,1.9794,1.9823,1.978,1.9946,1.995,1.9953,1.9966,1.9972,1.9977,0,0,0,0,0,1.9452,1.9497,1.9497,1.951,1.9584,1.9639,1.9649,1.9665,1.9651,1.9675,1.97,1.9699,1.9812,1.9787,1.9801,1.9833,1.9945,1.9949,1.9953,1.9964,1.9971,1.9977,0,0,0,0,0,0,1.9457,1.9503,1.9503,1.9563,1.9597,1.9639,1.967,1.9672,1.9712,1.9709,1.9729,1.974,1.98,1.9822,1.9794,1.9897,1.9877,1.9884,1.988,1.9887,1.9893,1.9887,1.9784,0,0,0,0,0,1.9465,1.9504,1.9543,1.9592,1.9609,1.9636,1.9661,1.9671,1.9708,1.9722,1.9751,1.9788,1.9833,1.9861,1.9903,1.997,1.9982,1.9999,2.0004,2.0008,2.0015,2.0055,2.0063,1.9969,1.9969,1.9969,0,0,1.9482,1.9512,1.9535,1.9594,1.9621,1.9664,1.9648,1.9693,1.9726,1.973,1.9788,1.9811,1.9854,1.9918,1.9947,1.9938,2.0043,2.0014,2.0017,2.0021,2.006,2.0069,2.0077,1.9972,1.9971,1.9971,0,0,1.9535,1.956,1.9605,1.9634,1.9675,1.9694,1.9705,1.9747,1.9762,1.9821,1.9826,1.9866,1.994,1.9972,1.9997,2.0065,2.0067,2.0079,2.0107,2.0146,2.0153,2.016,2.0187,2.0196,2.0085,2.0085,2.0085,0,1.9551,1.9613,1.9629,1.9674,1.9701,1.9706,1.9753,1.978,1.9834,1.9854,1.9843,1.9938,1.9967,2.004,2.0057,2.0077,2.0092,2.0074,2.0151,2.0158,2.0164,2.019,2.02,2.0086,2.0086,2.0086,2.0086,0,1.9633,1.9676,1.9708,1.9759,1.979,1.9836,1.9861,1.989,1.9898,1.9919,1.9981,2.0016,2.0067,2.0085,2.0093,2.016,2.0153,2.0146,2.0126,2.0174,2.0199,2.0209,2.0088,2.0087,2.0087,2.0087,0,0,1.969,1.9751,1.9762,1.9787,1.9835,1.987,1.9918,1.9966,1.9993,2.003,2.0073,2.0137,2.0132,2.0161,2.0173,2.0207,2.0262,2.0196,2.0198,2.0209,2.0341,2.0347,2.0358,2.0263,2.0265,2.0267,2.0338,0,1.975,1.9833,1.9849,1.9923,1.9965,1.9972,2.0014,2.0049,2.007,2.0111,2.0135,2.0181,2.0169,2.0187,2.0221,2.0248,2.0289,2.0243,2.0306,2.0308,2.0296,2.0371,2.0377,2.0442,2.0348,2.0349,2.0351,0,1.983,1.9869,1.9947,1.9991,2.0009,2.0047,2.0095,2.0132,2.0174,2.0187,2.0221,2.023,2.0283,2.026,2.0336,2.0304,2.0331,2.0349,2.0352,2.0359,2.0333,2.0382,2.0463,2.0474,2.0366,2.0364,2.0363,0,1.9866,1.9939,1.9995,2.0016,2.0069,2.0096,2.0119,2.0159,2.0188,2.0231,2.0251,2.0299,2.0326,2.0365,2.0388,2.0369,2.0463,2.0441,2.0477,2.0477,2.0497,2.0496,2.0586,2.0512,2.0512,2.0512,2.0512,0,1.9932,1.998,2.0013,2.0048,2.0103,2.0122,2.0177,2.0201,2.0236,2.0278,2.0287,2.0326,2.0354,2.0398,2.0417,2.0478,2.0489,2.0504,2.0508,2.0504,2.0502,2.0522,2.0519,2.0514,2.0514,2.0513,2.0513,0,1.9982,2.0006,2.0068,2.0114,2.0126,2.0165,2.0205,2.0241,2.0262,2.0315,2.0329,2.0364,2.0416,2.0443,2.0509,2.0522,2.0591,2.0592,2.0577,2.0579,2.0615,2.0612,2.0722,2.0739,2.0652,2.0653,2.0654,0,2.0023,2.006,2.0109,2.0137,2.0161,2.0206,2.0236,2.0258,2.029,2.0341,2.0372,2.0424,2.0468,2.0552,2.0585,2.0636,2.064,2.0675,2.0648,2.0643,2.0643,2.0641,2.0646,2.068,2.0681,2.0682,2.0682,0,2.0094,2.0104,2.0146,2.0194,2.0229,2.0268,2.0306,2.0329,2.0358,2.0394,2.0447,2.0481,2.0548,2.0602,2.0656,2.0683,2.0689,2.0691,2.0702,2.0699,2.0689,2.0697,2.0592,2.0688,2.0688,2.0687,2.0687,2.0687,2.0142,2.0176,2.0217,2.0265,2.0296,2.0332,2.0368,2.0395,2.0439,2.0495,2.0506,2.0564,2.0608,2.0681,2.0709,2.0757,2.0749,2.0765,2.077,2.0774,2.0777,2.068,2.0766,2.0766,2.0766,2.0766,2.0766,0,2.0215,2.0242,2.0285,2.0339,2.0377,2.0378,2.0421,2.0454,2.0504,2.0543,2.0586,2.0649,2.0702,2.0739,2.0794,2.0825,2.0829,2.0838,2.0837,2.0844,2.0779,2.0764,2.0834,2.0834,2.0834,2.0834,2.0834,2.0834,2.0257,2.0316,2.0332,2.0407,2.0435,2.049,2.0515,2.055,2.0582,2.0651,2.0695,2.0718,2.0759,2.0816,2.0866,2.0876,2.0896,2.0906,2.0916,2.0855,2.0848,2.0841,2.0828,2.091,2.091,2.0978,2.0978,2.0979]},{"header":{"parameterUnit":"m.s-1","parameterCategory":1,"la1":30.2991,"la2":30.254,"lo1":-89.0895,"lo2":-89.0444,"dy":0.0017,"dx":0.0017,"nx":28,"ny":28,"refTime":"2025-02-27T03:00:00:Z","depth":0,"parameterNumber":3,"parameterNumberName":"V-component_of_WINDS"},"data":[0,0,0,0,0,0,0,0,0,0,0,0,0,0,0,0,0,0,0,0,0,0,0,0,0,0,0,0,0,0,0,0,0,0,0,0,0,0,0,0,0,0,0,0,0,0,0,0,0,0,0,0,0,0,0,0,0,0,-2.368,-2.3678,0,-2.3514,-2.3512,-2.351,-2.3451,-2.3452,-2.3452,-2.3453,-2.3278,-2.3273,-2.3268,0,0,0,0,0,0,0,0,0,0,0,0,0,-2.394,-2.3935,-2.368,-2.3678,-2.3676,-2.3514,-2.3512,-2.351,-2.3451,-2.3452,-2.3452,-2.3453,-2.328,-2.3273,-2.3267,0,0,0,0,0,0,0,0,0,0,0,0,0,-2.3806,-2.3934,-2.368,-2.3627,-2.3621,-2.3515,-2.3512,-2.3509,-2.3451,-2.3452,-2.3453,-2.3453,-2.3282,-2.3274,-2.3266,-2.3199,0,0,-2.3242,-2.3239,0,0,0,0,0,0,0,0,-2.3813,-2.3796,-2.3637,-2.3631,-2.3623,-2.3504,-2.3539,-2.3405,-2.3451,-2.3515,-2.3453,-2.3454,-2.3352,-2.3339,-2.3305,-2.3191,-2.3184,-2.3242,-2.3237,-2.3233,-2.3231,0,0,0,0,0,0,0,-2.3823,-2.3803,-2.3614,-2.3635,-2.3626,-2.3609,-2.3591,-2.3514,-2.343,-2.351,-2.3505,-2.3486,-2.3348,-2.3313,-2.3301,-2.3181,-2.3242,-2.3235,-2.323,-2.3227,-2.3,-2.2999,0,0,0,0,0,0,-2.3842,-2.3811,-2.3619,-2.3609,-2.3723,-2.3604,-2.3584,-2.3541,-2.3431,-2.3415,-2.3486,-2.3484,-2.3326,-2.331,-2.3294,-2.3206,-2.3234,-2.3226,-2.3222,-2.3002,-2.3,-2.2999,0,0,0,0,0,0,-2.3847,-2.3825,-2.3626,-2.3709,-2.3682,-2.3599,-2.3551,-2.3538,-2.3502,-2.3413,-2.3397,-2.3465,-2.3326,-2.3305,-2.3223,-2.32,-2.3223,-2.3216,-2.3003,-2.3001,-2.2999,-2.3032,0,0,0,0,0,0,-2.3855,-2.3828,-2.3803,-2.3709,-2.3678,-2.356,-2.355,-2.3534,-2.3489,-2.3486,-2.339,-2.3374,-2.3325,-2.3235,-2.3215,-2.3189,-2.3209,-2.3005,-2.3002,-2.3,-2.3032,-2.3031,-2.303,0,0,0,0,0,-2.3865,-2.3818,-2.3802,-2.3779,-2.3646,-2.3558,-2.3541,-2.3486,-2.3488,-2.3461,-2.3403,-2.3377,-2.3206,-2.3227,-2.3204,-2.3176,-2.3006,-2.3003,-2.3,-2.3033,-2.3031,-2.303,0,0,0,0,0,0,-2.391,-2.3805,-2.3786,-2.3708,-2.3643,-2.3549,-2.3513,-2.3487,-2.3419,-2.3418,-2.3352,-2.333,-2.3253,-2.3206,-2.3232,-2.3103,-2.3104,-2.3097,-2.3137,-2.3135,-2.3134,-2.3145,-2.3203,0,0,0,0,0,-2.3912,-2.3852,-2.3762,-2.3702,-2.367,-2.3598,-2.3557,-2.3521,-2.345,-2.3422,-2.3359,-2.3289,-2.3219,-2.3175,-2.3106,-2.3026,-2.3002,-2.2994,-2.2993,-2.2993,-2.2986,-2.2938,-2.2932,-2.2989,-2.2989,-2.2989,0,0,-2.3913,-2.3848,-2.3814,-2.3709,-2.3654,-2.3591,-2.3575,-2.3509,-2.3461,-2.3411,-2.333,-2.3281,-2.3199,-2.3117,-2.3078,-2.3075,-2.2966,-2.2989,-2.2989,-2.2983,-2.2934,-2.2929,-2.2924,-2.2987,-2.2987,-2.2988,0,0,-2.3883,-2.3829,-2.3772,-2.3717,-2.3635,-2.3587,-2.3573,-2.3483,-2.3449,-2.3366,-2.3327,-2.3268,-2.315,-2.3092,-2.3047,-2.2994,-2.2966,-2.2973,-2.2966,-2.292,-2.2915,-2.2911,-2.2889,-2.2883,-2.2967,-2.2968,-2.2968,0,-2.3895,-2.38,-2.3746,-2.3681,-2.3635,-2.3589,-2.3529,-2.3478,-2.3377,-2.3345,-2.3345,-2.3194,-2.3135,-2.3038,-2.3025,-2.2991,-2.2971,-2.2983,-2.2921,-2.2916,-2.2911,-2.289,-2.2882,-2.2969,-2.2969,-2.2968,-2.2968,0,-2.3817,-2.3752,-2.3715,-2.362,-2.3569,-2.3508,-2.3441,-2.3397,-2.3364,-2.3316,-2.323,-2.3159,-2.3073,-2.3048,-2.3016,-2.2945,-2.2946,-2.2934,-2.2933,-2.2908,-2.2886,-2.2878,-2.297,-2.297,-2.297,-2.2969,0,0,-2.3812,-2.3686,-2.3673,-2.3628,-2.3533,-2.348,-2.3416,-2.3333,-2.3295,-2.3226,-2.3168,-2.3069,-2.3057,-2.3006,-2.2967,-2.2926,-2.2885,-2.2919,-2.2916,-2.2913,-2.28,-2.2808,-2.2799,-2.2867,-2.2866,-2.2864,-2.2806,0,-2.3768,-2.3651,-2.3599,-2.3505,-2.3442,-2.3397,-2.334,-2.3274,-2.3227,-2.3165,-2.3111,-2.3041,-2.3032,-2.3,-2.2958,-2.2899,-2.2861,-2.2903,-2.281,-2.2807,-2.283,-2.2789,-2.2797,-2.2745,-2.2797,-2.2796,-2.2795,0,-2.3701,-2.3633,-2.3533,-2.3444,-2.3415,-2.3365,-2.3284,-2.3227,-2.315,-2.3118,-2.3061,-2.3023,-2.2951,-2.2956,-2.2853,-2.2883,-2.2842,-2.2807,-2.2803,-2.2791,-2.2798,-2.2773,-2.2728,-2.2719,-2.2782,-2.2783,-2.2784,0,-2.3704,-2.3587,-2.3511,-2.3475,-2.3369,-2.3335,-2.3289,-2.3213,-2.3167,-2.3095,-2.3064,-2.2985,-2.2941,-2.2879,-2.282,-2.283,-2.2722,-2.2723,-2.2691,-2.2692,-2.2669,-2.2671,-2.2614,-2.2646,-2.2646,-2.2646,-2.2647,0,-2.3659,-2.3599,-2.3511,-2.3465,-2.3395,-2.3335,-2.3267,-2.3217,-2.3151,-2.3092,-2.3048,-2.2993,-2.2919,-2.2854,-2.2807,-2.2728,-2.2709,-2.2679,-2.2667,-2.2681,-2.2685,-2.2652,-2.2653,-2.2644,-2.2645,-2.2645,-2.2646,0,-2.3649,-2.3589,-2.3503,-2.341,-2.3385,-2.3338,-2.3257,-2.3209,-2.3159,-2.3085,-2.3064,-2.2985,-2.2906,-2.2842,-2.2738,-2.2706,-2.2622,-2.261,-2.2649,-2.2642,-2.2612,-2.2615,-2.2531,-2.2516,-2.2561,-2.256,-2.256,0,-2.3624,-2.3577,-2.3479,-2.3437,-2.3392,-2.3325,-2.3277,-2.3215,-2.3166,-2.3075,-2.3037,-2.2955,-2.2886,-2.2762,-2.2694,-2.2614,-2.2597,-2.2573,-2.2585,-2.26,-2.2593,-2.2596,-2.259,-2.2572,-2.2571,-2.2571,-2.2571,0,-2.3584,-2.3556,-2.3489,-2.3411,-2.3355,-2.3291,-2.3225,-2.3192,-2.3118,-2.3065,-2.2985,-2.2931,-2.2826,-2.2744,-2.2657,-2.2607,-2.2575,-2.2569,-2.2556,-2.257,-2.2593,-2.2577,-2.2643,-2.257,-2.257,-2.257,-2.257,-2.257,-2.3563,-2.3519,-2.3442,-2.3368,-2.3313,-2.3252,-2.3201,-2.3145,-2.3077,-2.2987,-2.2955,-2.2871,-2.2793,-2.2673,-2.2623,-2.2555,-2.2551,-2.2534,-2.2529,-2.2526,-2.2526,-2.2606,-2.2539,-2.2539,-2.2539,-2.2539,-2.2539,0,-2.3519,-2.3468,-2.3401,-2.331,-2.3251,-2.3229,-2.3154,-2.3106,-2.3034,-2.2965,-2.2898,-2.2804,-2.2724,-2.265,-2.2566,-2.2526,-2.2509,-2.2506,-2.2507,-2.2495,-2.2536,-2.2553,-2.252,-2.252,-2.252,-2.252,-2.252,-2.252,-2.3489,-2.3411,-2.3374,-2.3266,-2.3214,-2.3133,-2.3092,-2.3035,-2.2979,-2.2877,-2.281,-2.2763,-2.2691,-2.2601,-2.2526,-2.2506,-2.2475,-2.2475,-2.2451,-2.249,-2.2493,-2.2495,-2.2511,-2.247,-2.247,-2.2416,-2.2415,-2.2415]}]]